User: anonymous   Login
Location: Unspecified
(0.0000°N, 0.0000°E)
Time: 13:59:40
(UTC+00:00)
Language:

XW-2D - Orbit

View from above orbital plane
View from above orbital plane
View from above satellite
View from above satellite

Ground track
Ground track

The orbit data is extracted from the following two-line orbital elements,

1 40907U 15049J   19342.97389649  .00000530  00000-0  30959-4 0  9991
2 40907  97.4711 341.9300 0013171 321.2223  90.6393 15.16057147233262
Epoch (UTC): 08 December 2019 23:22:24
Eccentricity: 0.0013171
inclination: 97.4711°
perigee height: 508 km
apogee height: 527 km
right ascension of ascending node: 341.9300°
argument of perigee: 321.2223°
revolutions per day: 15.16057147
mean anomaly at epoch: 90.6393°
orbit number at epoch: 23326

The dashed part of the orbit path shows where the satellite is in the earth's shadow,  

DLR